[[{"header":{"parameterUnit":"m.s-1","parameterCategory":1,"la1":30.2991,"la2":30.254,"lo1":-89.0895,"lo2":-89.0444,"dy":0.0017,"dx":0.0017,"nx":28,"ny":28,"refTime":"2025-11-15T09:00:00:Z","depth":0,"parameterNumber":2,"parameterNumberName":"U-component_of_WINDS"},"data":[0,0,0,0,0,0,0,0,0,0,0,0,0,0,0,0,0,0,0,0,0,0,0,0,0,0,0,0,0,0,0,0,0,0,0,0,0,0,0,0,0,0,0,0,0,0,0,0,0,0,0,0,0,0,0,0,0,0,2.2393,2.2394,0,2.2548,2.2549,2.2551,2.2604,2.2603,2.2602,2.2602,2.2762,2.2766,2.2771,0,0,0,0,0,0,0,0,0,0,0,0,0,2.2143,2.2148,2.2392,2.2394,2.2396,2.2547,2.255,2.2552,2.2604,2.2603,2.2602,2.2601,2.276,2.2766,2.2772,0,0,0,0,0,0,0,0,0,0,0,0,0,2.227,2.2149,2.2392,2.2441,2.2446,2.2547,2.255,2.2552,2.2604,2.2603,2.2602,2.2601,2.2758,2.2765,2.2772,2.2836,0,0,2.2795,2.2798,0,0,0,0,0,0,0,0,2.2263,2.2279,2.2432,2.2437,2.2444,2.2555,2.252,2.2647,2.2604,2.2544,2.2602,2.2601,2.2694,2.2706,2.2738,2.2844,2.2851,2.2795,2.28,2.2803,2.2805,0,0,0,0,0,0,0,2.2254,2.2273,2.2454,2.2434,2.2441,2.2455,2.2472,2.2545,2.2622,2.2549,2.2553,2.2571,2.2697,2.273,2.2742,2.2853,2.2795,2.2801,2.2806,2.2809,2.3021,2.3023,0,0,0,0,0,0,2.2237,2.2265,2.2449,2.2459,2.2349,2.246,2.2479,2.2521,2.2622,2.2636,2.2572,2.2573,2.2718,2.2733,2.2747,2.283,2.2803,2.2809,2.2814,2.302,2.3022,2.3023,0,0,0,0,0,0,2.2231,2.2253,2.2443,2.2363,2.2388,2.2466,2.2512,2.2524,2.2558,2.2639,2.2653,2.2591,2.2718,2.2737,2.2814,2.2837,2.2813,2.2819,2.3019,2.3021,2.3022,2.2996,0,0,0,0,0,0,2.2224,2.2251,2.2275,2.2363,2.2392,2.2506,2.2513,2.2528,2.257,2.2573,2.2661,2.2675,2.2719,2.2803,2.2821,2.2846,2.2825,2.3017,2.302,2.3022,2.2995,2.2996,2.2998,0,0,0,0,0,2.2215,2.2261,2.2276,2.2298,2.2425,2.2507,2.2524,2.2574,2.2571,2.2597,2.265,2.2672,2.2831,2.281,2.2832,2.2859,2.3016,2.3019,2.3022,2.2994,2.2996,2.2998,0,0,0,0,0,0,2.2174,2.2274,2.2291,2.2367,2.2428,2.2516,2.255,2.2574,2.2637,2.2638,2.2697,2.2716,2.2789,2.2832,2.2807,2.2927,2.2925,2.2932,2.2897,2.2899,2.29,2.2889,2.2831,0,0,0,0,0,2.2173,2.2232,2.2316,2.2375,2.2405,2.2472,2.251,2.2543,2.2609,2.2635,2.2693,2.2756,2.2821,2.2862,2.2926,2.3001,2.3022,2.303,2.3032,2.3032,2.3038,2.3083,2.3088,2.3033,2.3033,2.3033,0,0,2.2174,2.2235,2.2269,2.2368,2.242,2.248,2.2493,2.2556,2.2601,2.2645,2.2721,2.2766,2.2841,2.2917,2.2954,2.2955,2.3058,2.3036,2.3036,2.3042,2.3086,2.3091,2.3096,2.3035,2.3034,2.3034,0,0,2.2205,2.2257,2.2312,2.2364,2.2441,2.2486,2.2499,2.2583,2.2615,2.2692,2.2727,2.2781,2.2891,2.2943,2.2984,2.3036,2.3059,2.3055,2.3063,2.3105,2.311,2.3114,2.3134,2.314,2.306,2.306,2.306,0,2.2195,2.2286,2.2338,2.2399,2.2443,2.2485,2.2542,2.2589,2.2684,2.2713,2.2713,2.2852,2.2905,2.2995,2.3008,2.3039,2.3057,2.3046,2.3105,2.3109,2.3114,2.3134,2.3141,2.3059,2.306,2.306,2.306,0,2.2271,2.2334,2.237,2.246,2.2508,2.2566,2.2628,2.267,2.2699,2.2743,2.2823,2.2888,2.2966,2.299,2.3019,2.3085,2.3083,2.3093,2.3092,2.3118,2.3137,2.3145,2.3058,2.3058,2.3059,2.3059,0,0,2.2281,2.2399,2.2412,2.2454,2.2543,2.2593,2.2654,2.273,2.2766,2.283,2.2883,2.2975,2.2985,2.3032,2.3067,2.3104,2.3143,2.311,2.3112,2.3114,2.3221,2.3213,2.3221,2.3158,2.316,2.3161,2.3215,0,2.2324,2.2435,2.2484,2.2573,2.2633,2.2674,2.2728,2.2788,2.2832,2.2889,2.2937,2.3002,2.301,2.3038,2.3077,2.3129,2.3165,2.3126,2.321,2.3212,2.319,2.3231,2.3224,2.3271,2.3222,2.3224,2.3225,0,2.239,2.2454,2.2549,2.2632,2.2659,2.2706,2.2781,2.2835,2.2905,2.2934,2.2986,2.302,2.3087,2.3081,2.3174,2.3147,2.3184,2.3215,2.3218,2.3229,2.322,2.3244,2.3287,2.3294,2.3237,2.3236,2.3235,0,2.2389,2.2499,2.2571,2.2605,2.2704,2.2736,2.2779,2.2848,2.2891,2.2956,2.2985,2.3057,2.3097,2.3153,2.3205,2.3196,2.3294,2.3292,2.3321,2.332,2.3341,2.3339,2.3392,2.3363,2.3363,2.3362,2.3362,0,2.2433,2.249,2.2572,2.2616,2.2681,2.2737,2.28,2.2846,2.2907,2.2961,2.3001,2.3051,2.3117,2.3176,2.3218,2.329,2.3307,2.3333,2.3344,2.333,2.3327,2.3356,2.3354,2.3364,2.3364,2.3364,2.3363,0,2.2443,2.25,2.2581,2.2668,2.2691,2.2735,2.281,2.2855,2.29,2.2968,2.2988,2.3059,2.3131,2.3189,2.3282,2.331,2.3385,2.3397,2.3362,2.3367,2.3394,2.3391,2.3468,2.3481,2.3442,2.3442,2.3442,0,2.2468,2.2513,2.2605,2.2644,2.2686,2.2748,2.2793,2.285,2.2894,2.2978,2.3013,2.3087,2.315,2.3262,2.3323,2.3395,2.3409,2.3431,2.342,2.3405,2.3411,2.3408,2.3413,2.3432,2.3432,2.3432,2.3432,0,2.2507,2.2533,2.2596,2.2669,2.2721,2.278,2.2841,2.2871,2.2939,2.2988,2.3061,2.311,2.3205,2.3279,2.3357,2.3402,2.3429,2.3435,2.3446,2.3433,2.3412,2.3425,2.3366,2.3434,2.3433,2.3433,2.3433,2.3433,2.2527,2.2569,2.264,2.2709,2.2761,2.2817,2.2864,2.2915,2.2977,2.3059,2.3089,2.3165,2.3235,2.3343,2.3388,2.3448,2.3451,2.3466,2.347,2.3474,2.3472,2.3401,2.3463,2.3463,2.3463,2.3463,2.3463,0,2.2568,2.2616,2.2679,2.2763,2.2818,2.2838,2.2907,2.2951,2.3017,2.308,2.3141,2.3225,2.3297,2.3364,2.3439,2.3474,2.3489,2.3492,2.3491,2.3501,2.3465,2.3449,2.3479,2.3479,2.3479,2.3479,2.3479,2.3479,2.2597,2.267,2.2704,2.2804,2.2852,2.2926,2.2964,2.3016,2.3067,2.316,2.322,2.3262,2.3327,2.3408,2.3474,2.3492,2.3519,2.3519,2.354,2.3506,2.3503,2.3501,2.3486,2.3524,2.3524,2.3571,2.3571,2.3572]},{"header":{"parameterUnit":"m.s-1","parameterCategory":1,"la1":30.2991,"la2":30.254,"lo1":-89.0895,"lo2":-89.0444,"dy":0.0017,"dx":0.0017,"nx":28,"ny":28,"refTime":"2025-11-15T09:00:00:Z","depth":0,"parameterNumber":3,"parameterNumberName":"V-component_of_WINDS"},"data":[0,0,0,0,0,0,0,0,0,0,0,0,0,0,0,0,0,0,0,0,0,0,0,0,0,0,0,0,0,0,0,0,0,0,0,0,0,0,0,0,0,0,0,0,0,0,0,0,0,0,0,0,0,0,0,0,0,0,0.1163,0.1163,0,0.1155,0.1155,0.1155,0.1156,0.1156,0.1156,0.1157,0.1149,0.1149,0.1148,0,0,0,0,0,0,0,0,0,0,0,0,0,0.1178,0.1178,0.1163,0.1163,0.1162,0.1155,0.1155,0.1155,0.1156,0.1156,0.1156,0.1157,0.1149,0.1149,0.1148,0,0,0,0,0,0,0,0,0,0,0,0,0,0.1171,0.1178,0.1163,0.1162,0.1162,0.1155,0.1155,0.1155,0.1156,0.1156,0.1156,0.1157,0.1149,0.1149,0.1148,0.1141,0,0,0.1147,0.1147,0,0,0,0,0,0,0,0,0.1172,0.1171,0.1162,0.1162,0.1162,0.1157,0.1158,0.115,0.1156,0.1158,0.1157,0.1157,0.1151,0.1151,0.1149,0.1141,0.1141,0.1147,0.1146,0.1146,0.1146,0,0,0,0,0,0,0,0.1172,0.1171,0.116,0.1162,0.1162,0.1162,0.1162,0.1156,0.1154,0.1158,0.1158,0.1157,0.1151,0.1149,0.1149,0.114,0.1147,0.1146,0.1146,0.1146,0.1126,0.1126,0,0,0,0,0,0,0.1173,0.1171,0.116,0.1159,0.1167,0.1162,0.1161,0.1158,0.1154,0.1153,0.1157,0.1157,0.115,0.1149,0.1148,0.114,0.1146,0.1146,0.1145,0.1126,0.1126,0.1126,0,0,0,0,0,0,0.1173,0.1172,0.116,0.1165,0.1164,0.1161,0.1158,0.1158,0.1156,0.1153,0.1153,0.1156,0.115,0.1149,0.1143,0.114,0.1146,0.1145,0.1127,0.1126,0.1126,0.1123,0,0,0,0,0,0,0.1174,0.1172,0.1169,0.1165,0.1164,0.1155,0.1158,0.1158,0.1155,0.1155,0.1152,0.1151,0.115,0.1144,0.1142,0.1139,0.1145,0.1127,0.1127,0.1126,0.1123,0.1122,0.1122,0,0,0,0,0,0.1174,0.1169,0.1169,0.1168,0.116,0.1155,0.1154,0.1153,0.1155,0.1152,0.115,0.1151,0.114,0.1143,0.1142,0.1138,0.1127,0.1127,0.1126,0.1123,0.1122,0.1122,0,0,0,0,0,0,0.1172,0.1168,0.1169,0.1162,0.1158,0.1155,0.1151,0.1152,0.1148,0.1148,0.1148,0.1147,0.114,0.1139,0.1142,0.1131,0.1134,0.1133,0.1132,0.1131,0.1131,0.1131,0.1144,0,0,0,0,0,0.1171,0.1167,0.1163,0.1158,0.1156,0.1154,0.1151,0.1151,0.1148,0.1146,0.1144,0.1141,0.1137,0.1134,0.113,0.1123,0.1122,0.112,0.1119,0.1118,0.1118,0.1114,0.1112,0.1124,0.1124,0.1124,0,0,0.1169,0.1166,0.1163,0.1157,0.1155,0.115,0.1153,0.1148,0.1145,0.1146,0.114,0.1138,0.1134,0.1128,0.1124,0.1126,0.1114,0.1118,0.1117,0.1117,0.1113,0.1112,0.1111,0.1124,0.1124,0.1124,0,0,0.1162,0.1159,0.1154,0.1151,0.1147,0.1146,0.1145,0.1141,0.114,0.1134,0.1134,0.113,0.1123,0.112,0.1118,0.111,0.1111,0.1109,0.1105,0.1101,0.11,0.1099,0.1096,0.1095,0.1108,0.1108,0.1108,0,0.1159,0.1152,0.1151,0.1146,0.1144,0.1144,0.1139,0.1136,0.1131,0.113,0.1131,0.1122,0.112,0.1112,0.111,0.1108,0.1107,0.1109,0.11,0.1099,0.1098,0.1096,0.1094,0.1108,0.1108,0.1108,0.1108,0,0.1149,0.1144,0.1141,0.1136,0.1133,0.1128,0.1126,0.1123,0.1123,0.1121,0.1115,0.1112,0.1107,0.1105,0.1105,0.1098,0.1099,0.11,0.1103,0.1097,0.1094,0.1093,0.1107,0.1108,0.1108,0.1108,0,0,0.1141,0.1135,0.1134,0.1132,0.1127,0.1124,0.1118,0.1114,0.1111,0.1108,0.1103,0.1097,0.1098,0.1096,0.1095,0.1092,0.1085,0.1094,0.1093,0.1092,0.1077,0.1076,0.1074,0.1086,0.1085,0.1085,0.1077,0,0.1134,0.1125,0.1123,0.1115,0.1111,0.1111,0.1107,0.1104,0.1102,0.1098,0.1096,0.1092,0.1094,0.1092,0.1089,0.1087,0.1082,0.1087,0.1082,0.1081,0.1082,0.1073,0.1072,0.1064,0.1076,0.1076,0.1076,0,0.1124,0.112,0.1111,0.1107,0.1105,0.1101,0.1097,0.1093,0.1089,0.1088,0.1085,0.1085,0.108,0.1083,0.1076,0.1079,0.1077,0.1075,0.1075,0.1074,0.1078,0.1072,0.1062,0.106,0.1074,0.1074,0.1074,0,0.1118,0.1111,0.1105,0.1103,0.1098,0.1095,0.1093,0.109,0.1087,0.1083,0.1081,0.1077,0.1074,0.1071,0.1069,0.1072,0.1062,0.1065,0.1061,0.1061,0.1059,0.1059,0.1048,0.1057,0.1057,0.1057,0.1057,0,0.111,0.1105,0.1102,0.1099,0.1093,0.1091,0.1086,0.1084,0.108,0.1076,0.1076,0.1072,0.1071,0.1067,0.1066,0.106,0.1059,0.1058,0.1057,0.1057,0.1058,0.1056,0.1056,0.1057,0.1057,0.1057,0.1057,0,0.1103,0.1101,0.1095,0.1091,0.109,0.1085,0.1082,0.1078,0.1076,0.1071,0.107,0.1067,0.1062,0.1061,0.1055,0.1054,0.1047,0.1047,0.1048,0.1048,0.1044,0.1044,0.1031,0.1029,0.104,0.104,0.104,0,0.1098,0.1094,0.109,0.1087,0.1084,0.108,0.1077,0.1075,0.1072,0.1068,0.1065,0.106,0.1056,0.1048,0.1045,0.1041,0.1041,0.1037,0.104,0.104,0.1041,0.1041,0.104,0.1036,0.1036,0.1036,0.1036,0,0.1089,0.1088,0.1084,0.1079,0.1076,0.1072,0.1068,0.1066,0.1064,0.1061,0.1055,0.1052,0.1046,0.1041,0.1036,0.1034,0.1035,0.1035,0.1033,0.1033,0.1034,0.1033,0.1046,0.1035,0.1035,0.1035,0.1035,0.1035,0.1083,0.1079,0.1075,0.107,0.1067,0.1064,0.106,0.1058,0.1054,0.1049,0.1048,0.1042,0.1039,0.1032,0.103,0.1026,0.1027,0.1025,0.1025,0.1024,0.1024,0.1035,0.1025,0.1025,0.1025,0.1025,0.1025,0,0.1074,0.1071,0.1067,0.1061,0.1058,0.1058,0.1054,0.1051,0.1046,0.1042,0.1038,0.1032,0.1028,0.1025,0.102,0.1017,0.1017,0.1016,0.1016,0.1015,0.1023,0.1024,0.1016,0.1016,0.1016,0.1016,0.1016,0.1016,0.1068,0.1062,0.1061,0.1053,0.1051,0.1045,0.1043,0.1039,0.1037,0.103,0.1026,0.1024,0.1021,0.1015,0.1011,0.101,0.1008,0.1007,0.1006,0.1014,0.1015,0.1016,0.1017,0.1007,0.1007,0.0999,0.0999,0.0999]}]]